Regional Weather Roundup
Issued by NWS

Home | Current Version | Previous Version | Text Only | Print | Product List | Glossary Off
Versions: 1 2 3 4 5 6 7 8 9 10 11 12 13 14 15 16 17 18 19 20 21 22 23 24 25 26 27 28 29 30 31 32 33 34 35 36 37 38 39 40 41 42 43 44 45 46 47 48 49 50

000
ASUS43 KDTX 292210
RWRMI
MICHIGAN HOURLY REGIONAL WEATHER ROUNDUP
NATIONAL WEATHER SERVICE DETROIT/PONTIAC MI
600 PM EDT SAT AUG 29 2015

NOTE: "FAIR" INDICATES FEW OR NO CLOUDS BELOW 12,000 FEET WITH NO
SIGNIFICANT WEATHER AND/OR OBSTRUCTION TO VISIBILITY.

MIZ047>049-052>055-059>063-066>070-074>076-081>083-292300-
SOUTHEAST LOWER MICHIGAN

CITY           SKY/WX    TMP DP  RH WIND       PRES   REMARKS
ADRIAN         CLOUDY    73  68  84 CALM      30.06F
ALMA           LGT RAIN  66  65  96 E3        30.08F
ANN ARBOR      CLOUDY    74  64  71 SE8       30.04F
BAD AXE        CLOUDY    66  62  87 CALM      30.09F
DETROIT CITY   CLOUDY    74  62  66 CALM      30.07S
DETROIT        CLOUDY    75  60  59 E3        30.07S
FLINT          CLOUDY    73  65  75 E3        30.07F
GROSSE ILE     CLOUDY    73  66  78 E3        30.05S
HILLSDALE      CLOUDY    71  69  92 CALM      30.07F
HOWELL         CLOUDY    69  65  86 CALM      30.07S

CITY           SKY/WX    TMP DP  RH WIND       PRES   REMARKS
JACKSON        CLOUDY    71  68  90 CALM      30.07R
LAMBERTVILLE   LGT RAIN  74  66  75 E3        30.06F
LANSING        RAIN      67  65  93 NE3       30.09R
LAPEER         NOT AVBL
MASON          CLOUDY    69  64  84 CALM      30.08R
MT. CLEMENS    CLOUDY    72  64  75 E3        30.05F
PONTIAC        CLOUDY    70  65  84 E5        30.06F
PORT HOPE        N/A     67  63  87 SE8       30.06F
PORT HURON     CLOUDY    70  66  88 CALM      30.07F
TRI CITIES     LGT RAIN  67  63  87 SW5       30.10S FOG
YPSILANTI      CLOUDY    77  63  61 SE5       30.06F
$$
MIZ043>046-050>051-056>058-064>065-071>073-077>080-292300-
SOUTHWEST LOWER MICHIGAN

CITY           SKY/WX    TMP DP  RH WIND       PRES   REMARKS
BATTLE CREEK   LGT RAIN  69  66  90 N5        30.07S FOG
BENTON HARBOR  CLOUDY    69  66  90 E7        30.02F FOG
BIG RAPIDS     CLOUDY    66  62  87 SE5       30.06F
COLDWATER      CLOUDY    71  67  88 SE3       30.06F
HOLLAND        LGT RAIN  69  65  86 E7        30.05F
GRAND RAPIDS   LGT RAIN  67  65  93 E9        30.06S
KALAMAZOO      LGT RAIN  69  65  86 E3        30.05F
MARSHALL       CLOUDY    71  67  87 CALM      30.06S
MUSKEGON       CLOUDY    66  62  87 E7        30.05F FOG
$$
MIZ016>042-292300-
NORTHERN LOWER MICHIGAN

CITY           SKY/WX    TMP DP  RH WIND       PRES   REMARKS
ALPENA         MOSUNNY   71  60  68 S9        30.06F
BEAVER ISLAND  MOSUNNY   70  61  74 SW9       30.05S
BELLAIRE       CLOUDY    73  58  59 CALM      30.05S
CADILLAC       CLOUDY    68  59  71 S6        30.06F
CHARLEVOIX     PTSUNNY   71  61  69 W7        30.07S
FRANKFORT      CLOUDY    70  62  77 SW5       30.05S
GAYLORD        CLOUDY    70  58  65 SW6       30.07S
GRAYLING       MOSUNNY   69  59  71 S5        30.08S
HARBOR SPRINGS SUNNY     71  61  70 SW6       30.05R
HOUGHTON LAKE  CLOUDY    68  58  70 VRB3      30.08S
MANISTEE       CLOUDY    70  57  64 CALM      30.05S
OSCODA         PTSUNNY   69  61  75 SE6       30.08S
PELLSTON       CLOUDY    72  60  66 SW5       30.06R
TRAVERSE CITY  CLOUDY    72  61  68 VRB3      30.04S
$$
MIZ007>008-015-292300-
EASTERN UPPER MICHIGAN

CITY           SKY/WX    TMP DP  RH WIND       PRES   REMARKS
KINROSS        PTSUNNY   70  61  73 SW8       30.04S
MACKINAC ISLAN CLOUDY    68  57  68 W6        30.05S
NEWBERRY       MOSUNNY   70  61  72 SW14      30.02S
S. S. MARIE    MOSUNNY   71  61  70 SW7       30.02S
$$
MIZ004>006-011>014-085-292300-
CENTRAL UPPER MICHIGAN

CITY           SKY/WX    TMP DP  RH WIND       PRES   REMARKS
MANISTIQUE     SUNNY     67  60  80 S13G18    30.03S
ESCANABA       SUNNY     68  61  77 S13       30.02S
MENOMINEE      MOSUNNY   72  61  68 E3        30.03S
SAWYER-GWINN   MOSUNNY   79  57  47 W6        30.00F
$$
MIZ001>003-009>011-084-292300-
WESTERN UPPER MICHIGAN

CITY           SKY/WX    TMP DP  RH WIND       PRES   REMARKS
IRON MOUNTAIN  MOSUNNY   76  60  57 S7        30.01S
HOUGHTON       SUNNY     73  56  54 W13       29.99S
COPPER HARBOR    N/A     70  59  68 N18       29.98R
IRONWOOD       SUNNY     75  61  60 SW7       29.98S
$$

ABBREVIATIONS USED IN REMARKS
   TC - TEMPERATURE IN CELSIUS
  WCI - WIND CHILL INDEX
   HX - HEAT INDEX
  VSB - VISIBILITY




USA.gov is the U.S. government's official web portal to all federal, state and local government web resources and services.